Weather History for North Myrtle Beach, SC

Change the Weather History Date:

Wednesday, February 6, 2013

  Actual Average Record
Temperature  
Mean Temperature 55 °F 47 °F  
Max Temperature 70 °F 56 °F 71 °F (1956)
Min Temperature 40 °F 37 °F 15 °F (1996)
Degree Days  
Heating Degree Days 10 18  
Month to date heating degree days 120 113  
Since 1 July heating degree days 1409 1581  
Cooling Degree Days 0 0  
Month to date cooling degree days 0 0  
Year to date cooling degree days 2 0  
Growing Degree Days 5 (Base 50)    
Moisture  
Dew Point 44 °F    
Average Humidity 65    
Maximum Humidity 100    
Minimum Humidity 30    
Precipitation  
Precipitation 0.00 in 0.11 in 0.38 in (2002)
Month to date precipitation 0.00 0.65  
Year to date precipitation 0.64 4.34  
Sea Level Pressure  
Sea Level Pressure 30.13 in    
Wind  
Wind Speed 4 mph (WSW)    
Max Wind Speed 13 mph    
Max Gust Speed 18 mph    
Visibility 8 miles    
Events      
T = Trace of Precipitation, MM = Missing Value Source: NWS Daily Summary

Daily Weather History Graph

Daily Weather History Graph

Search for Another Location

Airport:

Trip Planner

Search our weather history database for the weather conditions in past years. The results will help you decide how hot, cold, wet, or windy it might be!

Date:

Astronomy

Feb. 06, 2013 Rise Set
Actual Time 7:07 AM EST 5:50 PM EST
Civil Twilight 6:41 AM EST 6:16 PM EST
Nautical Twilight 6:11 AM EST 6:46 PM EST
Astronomical Twilight 5:42 AM EST 7:15 PM EST
Moon 3:44 AM EST (2/6) 2:12 PM EST (2/6)
Length of Visible Light 11h 35m
Length of Day
10h 43m
Waning Crescent, 17% of the Moon is Illuminated
Feb 6
Waning Crescent
Feb 10
New
Feb 17
First Quarter
Feb 25
Full
Mar 4
Last Quarter

Hourly Weather History & Observations

Time (EST) Temp. Windchill Dew Point Humidity Pressure Visibility Wind Dir Wind Speed Gust Speed Precip Events Conditions
12:53 AM 53.1 °F - 46.9 °F 80% 30.02 in 10.0 mi West 4.6 mph - N/A   Scattered Clouds
2:53 AM 50.0 °F - 46.0 °F 86% 30.02 in 10.0 mi WSW 4.6 mph - N/A   Partly Cloudy
3:53 AM 52.0 °F - 46.9 °F 83% 30.03 in 10.0 mi WSW 4.6 mph - N/A   Partly Cloudy
4:53 AM 48.9 °F - 46.0 °F 90% 30.04 in 10.0 mi Calm Calm - N/A   Partly Cloudy
5:53 AM 52.0 °F - 46.9 °F 83% 30.06 in 10.0 mi West 3.5 mph - N/A   Mostly Cloudy
6:53 AM 50.0 °F - 46.0 °F 86% 30.09 in 10.0 mi Calm Calm - N/A   Partly Cloudy
7:53 AM 50.0 °F - 46.0 °F 86% 30.11 in 8.0 mi WNW 3.5 mph - N/A   Clear
8:53 AM 55.9 °F - 46.9 °F 72% 30.13 in 10.0 mi NW 6.9 mph - N/A   Clear
9:53 AM 61.0 °F - 46.9 °F 60% 30.14 in 10.0 mi NNW 5.8 mph - N/A   Clear
10:53 AM 66.0 °F - 39.9 °F 38% 30.15 in 10.0 mi North 9.2 mph - N/A   Clear
11:53 AM 66.9 °F - 37.9 °F 34% 30.14 in 10.0 mi NNE 6.9 mph - N/A   Clear
12:53 PM 68.0 °F - 36.0 °F 31% 30.12 in 10.0 mi Calm Calm - N/A   Clear
1:53 PM 66.9 °F - 37.9 °F 34% 30.11 in 10.0 mi SE 8.1 mph - N/A   Clear
2:53 PM 64.0 °F - 44.1 °F 48% 30.11 in 10.0 mi South 5.8 mph - N/A   Clear
3:53 PM 63.0 °F - 42.1 °F 46% 30.12 in 10.0 mi SSE 6.9 mph - N/A   Clear
4:53 PM 60.1 °F - 45.0 °F 57% 30.13 in 10.0 mi ESE 3.5 mph - N/A   Clear
5:53 PM 57.0 °F - 46.9 °F 69% 30.15 in 10.0 mi ESE 4.6 mph - N/A   Clear
6:53 PM 55.0 °F - 46.9 °F 74% 30.17 in 10.0 mi East 3.5 mph - N/A   Clear
7:53 PM 51.1 °F - 45.0 °F 80% 30.19 in 10.0 mi Calm Calm - N/A   Clear
8:53 PM 46.0 °F - 44.1 °F 93% 30.20 in 8.0 mi Calm Calm - N/A   Clear
9:53 PM 43.0 °F - 42.1 °F 97% 30.20 in 5.0 mi Calm Calm - N/A   Clear
10:53 PM 43.0 °F - 41.0 °F 93% 30.21 in 3.0 mi Calm Calm - N/A   Clear
11:05 PM 42.8 °F - 42.8 °F 100% 30.21 in 2.0 mi Calm Calm - N/A   Clear
11:15 PM 42.8 °F - 42.8 °F 100% 30.21 in 4.0 mi Calm Calm - N/A   Clear
11:53 PM 41.0 °F 39.0 °F 39.0 °F 93% 30.22 in 2.0 mi NE 3.5 mph - N/A   Clear